Home > Weather > Abbotsford > Past weeks

Flag for Canada Past Weather in Abbotsford, British Columbia, Canada — Yesterday and Last 2 Weeks

Now
57 °F

Clear.


Feels Like: 57 °F
Forecast: 56 / 78 °F
Wind: 2 mph from North

Location: Abbotsford

Current Time: Jul 24, 2016 at 3:54:45 AM

Latest Report: Jul 24, 2016 at 3:00 AM


Visibility: 15 mi

Pressure: 30.16 "Hg

Humidity: 82%

Dew Point: 52 °F

Location of AbbotsfordLocation

Past Weather in Abbotsford — Graph

°F

Abbotsford Temperature Yesterday

Maximum temperature yesterday: 73 °F (at 3:00 PM)
Minimum temperature yesterday: 57 °F (at 7:00 AM)
Average temperature yesterday: 66 °F

High & Low Weather Summary for the Past Weeks

 TemperatureHumidityPressure
High84 °F (Jul 21, 4:00 PM)100% (Jul 13, 5:00 AM)30.25 "Hg (Jul 13, 5:00 AM)
Low54 °F (Jul 15, 1:00 AM)37% (Jul 21, 5:00 PM)29.85 "Hg (Jul 9, 2:00 AM)
Average65 °F74%30.07 "Hg
* Reported Jul 9 2:00 AM — Jul 24 2:00 AM, Abbotsford, Weather by CustomWeather, © 2016

Note: Actual official high and low records may vary slightly from our data, if they occured in-between our weather recording intervals... More about our weather records

Advertising

Abbotsford Weather History for the Previous 24 Hours

Scroll right to see more
 ConditionsComfort  
Time TempWeatherWind HumidityBarometerVisibility
2:00 AM
Sun, Jul 24
57 °FClear.3 mph82%30.17 "Hg15 mi
1:00 AM59 °FClear.2 mph77%30.19 "Hg15 mi
12:00 AM59 °FClear.No wind77%30.19 "Hg15 mi
11:00 PM
Sat, Jul 23
61 °FPassing clouds.2 mph72%30.20 "Hg15 mi
10:00 PM61 °FPassing clouds.3 mph72%30.20 "Hg15 mi
9:00 PM64 °FPassing clouds.8 mph68%30.20 "Hg30 mi
8:00 PM70 °FPassing clouds.7 mph57%30.19 "Hg30 mi
7:00 PM72 °FPartly sunny.3 mph53%30.19 "Hg30 mi
6:00 PM72 °FPartly sunny.9 mph53%30.21 "Hg25 mi
5:00 PM73 °FPartly sunny.9 mph50%30.22 "Hg25 mi
4:00 PM73 °FBroken clouds.6 mph50%30.23 "Hg25 mi
3:00 PM73 °FScattered clouds.12 mph53%30.24 "Hg25 mi
2:00 PM72 °FScattered clouds.13 mph53%30.24 "Hg25 mi
1:00 PM72 °FScattered clouds.12 mph53%30.24 "Hg25 mi
12:00 PM68 °FPartly sunny.9 mph64%30.25 "Hg25 mi
11:00 AM68 °FBroken clouds.8 mph64%30.25 "Hg20 mi
10:00 AM64 °FBroken clouds.8 mph73%30.25 "Hg20 mi
9:00 AM64 °FScattered clouds.6 mph73%30.24 "Hg25 mi
8:00 AM63 °FScattered clouds.3 mph73%30.24 "Hg20 mi
7:00 AM57 °FScattered clouds.5 mph88%30.24 "Hg25 mi
6:00 AM59 °FPartly cloudy.5 mph82%30.24 "Hg25 mi
5:00 AM61 °FPartly cloudy.3 mph77%30.23 "Hg15 mi
4:00 AM59 °FPartly cloudy.5 mph82%30.23 "Hg15 mi
3:00 AM63 °FPassing clouds.No wind73%30.24 "Hg15 mi
Weather by CustomWeather, © 2016

See weather overviewHow to use our weather pages